Location: Bishopstone
(51.0167°N, 1.9000°W)
Time: 09:07:26
(UTC+00:00)

Landsat 7 - Pass Details

Date: 16 September 2019
Orbit: 701 x 703 km, 98.1° (Epoch: 19 October)

Event Time Altitude Azimuth Distance (km) Brightness Sun altitude
Exits shadow 21:25:11 74° 349° (NNW) 737 3.9 -26.9°
Drops below altitude 10° 21:29:32 10° 346° (NNW) 2,183 7.1 -27.4°
Sets 21:31:48 0° 346° (NNW) 3,106 8.0 -27.6°
